Regional Weather Roundup
Issued by NWS

Home | Current Version | Previous Version | Text Only | Print | Product List | Glossary Off
Versions: 1 2 3 4 5 6 7 8 9 10 11 12 13 14 15 16 17 18 19 20 21 22 23 24 25 26 27 28 29 30 31 32 33 34 35 36 37 38 39 40 41 42 43 44 45 46 47 48 49 50

000
ASUS43 KFSD 061710
RWRSD

WEATHER ROUNDUP FOR SOUTH DAKOTA
NATIONAL WEATHER SERVICE SIOUX FALLS SD
1200 PM CDT WED MAY 06 2015

NOTE: "FAIR" INDICATES FEW OR NO CLOUDS BELOW 12,000 FEET WITH NO
SIGNIFICANT WEATHER AND/OR OBSTRUCTIONS TO VISIBILITY.


SDZ001>005-009-010-012>017-061800-
NORTHWEST AND NORTH CENTRAL SOUTH DAKOTA

CITY           SKY/WX    TMP DP  RH WIND       PRES   REMARKS
BUFFALO          N/A     57  55  93 S9        29.64F
FAITH            N/A     62  57  83 S15       29.68F
MOBRIDGE       CLOUDY    65  60  84 SE16      29.70F
$$

SDZ012>016-024>037-041>051-057-063-072>074-061800-
SOUTHWEST AND SOUTH CENTRAL SOUTH DAKOTA

CITY           SKY/WX    TMP DP  RH WIND       PRES   REMARKS
RAPID CTY ARPT CLOUDY    57  55  93 CALM      29.68F
PIERRE         CLOUDY    66  57  72 SE18      29.69F
CUSTER         LGT RAIN  52  48  86 NE3       29.73S FOG
ELLSWORTH AFB  CLOUDY    57  57 100 S5        29.68
PHILIP         CLOUDY    69  57  65 SE15G22   29.65F
PINE RIDGE     CLOUDY    61  53  75 S8        29.67F
SPEARFISH      LGT RAIN  55  55 100 NW7       29.71F
WINNER         CLOUDY    67  57  70 SE16      29.70F
$$

SDZ004>011-016>023-039-040-061800-
NORTHEAST SOUTH DAKOTA

CITY           SKY/WX    TMP DP  RH WIND       PRES   REMARKS
ABERDEEN       LGT RAIN  64  61  90 SE20G28   29.79F FOG
WATERTOWN      LGT RAIN  64  60  87 E10G21    29.82F FOG
BROOKINGS      CLOUDY    66  61  82 SE18G28   29.82F
SISSETON         N/A     61  60  97 S21       29.85F
$$

SDZ017-020-022-023-036>040-048>070-061800-
SOUTHEAST SOUTH DAKOTA

CITY           SKY/WX    TMP DP  RH WIND       PRES   REMARKS
SIOUX FALLS    RAIN      65  59  81 SE21G30   29.81F
HURON          RAIN      63  61  93 SE10      29.75F FOG
CHAMBERLAIN    LGT RAIN  62  60  93 SE14G20   29.72F
MITCHELL       LGT RAIN  63  62  97 SE22      29.74F FOG
YANKTON        CLOUDY    64  59  82 SE20      29.75F
$$

ABBREVIATIONS USED IN REMARKS
   TC - TEMPERATURE IN CELSIUS
  WCI - WIND CHILL INDEX
   HX - HEAT INDEX
  VSB - VISIBILITY




USA.gov is the U.S. government's official web portal to all federal, state and local government web resources and services.